South Portland, ME

6:45 AM EST on February 28, 2017 (GMT -0500)
Portland International

Weather History for KPWM - February, 2014

Change the Weather History Date:

Tuesday, February 25, 2014

  Actual Average Record
Temperature  
Mean Temperature 18 °F 28 °F  
Max Temperature 24 °F 37 °F 53 °F (2016)
Min Temperature 11 °F 19 °F -13 °F (1959)
Degree Days  
Heating Degree Days 47 37  
Month to date heating degree days 1044 997  
Since 1 July heating degree days 5088 4933  
Cooling Degree Days 0 0  
Month to date cooling degree days 0 0  
Year to date cooling degree days 0 0  
Moisture  
Dew Point 4 °F    
Average Humidity 54    
Maximum Humidity 67    
Minimum Humidity 40    
Precipitation  
Precipitation 0.00 in 0.13 in 3.83 in (2010)
Month to date precipitation 4.27 2.86  
Year to date precipitation 8.32 6.24  
Snow  
Snow 0.00 in 0.40 in 15.50 in (1966)
Month to date snowfall 34.5 10.8  
Since 1 July snowfall 78.8 45.1  
Snow Depth 9.00 in    
Sea Level Pressure  
Sea Level Pressure 29.89 in    
Wind  
Wind Speed 8 mph (West)    
Max Wind Speed 20 mph    
Max Gust Speed 27 mph    
Visibility 10 miles    
Events      
T = Trace of Precipitation, MM = Missing Value Source: NWS Daily Summary

Daily Weather History Graph

Daily Weather History Graph

Search for Another Location

Airport or City:

Trip Planner

Search our weather history database for the weather conditions in past years. The results will help you decide how hot, cold, wet, or windy it might be!

Date:

Astronomy

Feb. 25, 2014 Rise Set
Actual Time 6:24 AM EST 5:24 PM EST
Civil Twilight 5:55 AM EST 5:53 PM EST
Nautical Twilight 5:22 AM EST 6:26 PM EST
Astronomical Twilight 4:49 AM EST 7:00 PM EST
Moon 3:21 AM EST (2/25) 1:21 PM EST (2/25)
Length of Visible Light 11h 58m
Length of Day
11h 00m
Waning Crescent, 18% of the Moon is Illuminated
Feb 25
Waning Crescent
Mar 1
New
Mar 8
First Quarter
Mar 16
Full
Mar 23
Last Quarter

Hourly Weather History & Observations

Time (EST) Temp. Windchill Dew Point Humidity Pressure Visibility Wind Dir Wind Speed Gust Speed Precip Events Conditions
12:51 AM 19.0 °F 11.1 °F 3.0 °F 50% 29.89 in 10.0 mi West 5.8 mph - N/A   Clear
1:51 AM 18.0 °F 6.9 °F 3.0 °F 52% 29.89 in 10.0 mi WSW 9.2 mph - N/A   Clear
2:51 AM 18.0 °F 7.7 °F 3.9 °F 54% 29.89 in 10.0 mi WSW 8.1 mph - N/A   Clear
3:51 AM 17.1 °F 6.6 °F 6.1 °F 62% 29.90 in 10.0 mi West 8.1 mph - N/A   Clear
4:51 AM 16.0 °F 8.8 °F 6.1 °F 65% 29.91 in 10.0 mi WSW 4.6 mph - N/A   Clear
5:51 AM 15.1 °F - 5.0 °F 64% 29.93 in 10.0 mi Calm Calm - N/A   Partly Cloudy
6:51 AM 16.0 °F 7.4 °F 5.0 °F 62% 29.92 in 10.0 mi West 5.8 mph - N/A   Partly Cloudy
7:51 AM 16.0 °F 8.8 °F 5.0 °F 62% 29.93 in 10.0 mi WNW 4.6 mph - N/A   Partly Cloudy
8:51 AM 19.9 °F 14.9 °F 3.9 °F 50% 29.92 in 10.0 mi WNW 3.5 mph - N/A   Partly Cloudy
9:51 AM 19.9 °F 14.9 °F 1.9 °F 46% 29.93 in 10.0 mi WNW 3.5 mph - N/A   Scattered Clouds
10:51 AM 21.9 °F 11.7 °F 3.0 °F 44% 29.91 in 10.0 mi West 9.2 mph - N/A   Mostly Cloudy
11:51 AM 23.0 °F 13.1 °F 3.0 °F 42% 29.87 in 10.0 mi West 9.2 mph - N/A   Mostly Cloudy
12:51 PM 24.1 °F 11.5 °F 3.9 °F 42% 29.85 in 10.0 mi West 15.0 mph - N/A   Mostly Cloudy
1:51 PM 23.0 °F 9.2 °F 6.1 °F 48% 29.84 in 10.0 mi West 17.3 mph 23.0 mph N/A   Overcast
2:51 PM 21.9 °F 8.7 °F 6.1 °F 51% 29.84 in 10.0 mi West 15.0 mph 20.7 mph N/A   Overcast
3:51 PM 23.0 °F 10.6 °F 5.0 °F 46% 29.84 in 10.0 mi WNW 13.8 mph - N/A   Scattered Clouds
4:51 PM 21.9 °F 7.8 °F 5.0 °F 48% 29.84 in 10.0 mi WNW 17.3 mph 21.9 mph N/A   Mostly Cloudy
5:51 PM 21.0 °F 10.6 °F 5.0 °F 50% 29.87 in 10.0 mi West 9.2 mph - N/A   Mostly Cloudy
6:51 PM 19.0 °F 8.2 °F 5.0 °F 54% 29.89 in 10.0 mi West 9.2 mph - N/A   Clear
7:51 PM 19.0 °F 9.0 °F 5.0 °F 54% 29.89 in 10.0 mi West 8.1 mph - N/A   Clear
8:51 PM 17.1 °F 11.7 °F 3.9 °F 56% 29.90 in 10.0 mi West 3.5 mph - N/A   Clear
9:51 PM 15.1 °F 7.7 °F 3.9 °F 61% 29.91 in 10.0 mi West 4.6 mph - N/A   Clear
10:51 PM 15.1 °F - 3.9 °F 61% 29.92 in 10.0 mi Calm Calm - N/A   Clear
11:51 PM 14.0 °F 3.9 °F 3.9 °F 64% 29.91 in 10.0 mi West 6.9 mph - N/A   Clear